| time (UTC) | temp F | wind direction | speed MPH | gust MPH | rain 1hr in | rain 24hr in | rain mn in | humidity % | barometer mb |
| 20260506073447 | 55 | 239 | 4.0 | 10.0 | 0.00 | 0.35 | 0.01 | 82 | 1007.9 |
| 20260506072715 | 55 | 206 | 2.0 | 7.0 | 0.00 | 0.35 | 0.01 | 83 | 1007.9 |
| 20260506072218 | 55 | 216 | 4.0 | 7.0 | 0.00 | 0.35 | 0.01 | 83 | 1007.9 |
| 20260506071946 | 55 | 200 | 4.0 | 6.0 | 0.00 | 0.35 | 0.01 | 83 | 1007.8 |
| 20260506071213 | 55 | 178 | 2.0 | 9.0 | 0.00 | 0.35 | 0.01 | 83 | 1007.8 |
| 20260506070708 | 55 | 243 | 4.0 | 9.0 | 0.00 | 0.35 | 0.01 | 83 | 1007.8 |
| 20260506070209 | 55 | 220 | 2.0 | 9.0 | 0.00 | 0.35 | 0.01 | 83 | 1007.9 |
| 20260506062157 | 53 | 216 | 3.0 | 6.0 | 0.00 | 0.35 | 0.01 | 88 | 1008.0 |
| 20260506061955 | 53 | 198 | 2.0 | 4.0 | 0.00 | 0.35 | 0.01 | 88 | 1008.0 |
| 20260506061152 | 52 | 231 | 3.0 | 5.0 | 0.00 | 0.35 | 0.01 | 88 | 1008.0 |
| 20260506060654 | 52 | 195 | 3.0 | 5.0 | 0.00 | 0.35 | 0.01 | 88 | 1008.1 |
| 20260506060151 | 52 | 178 | 1.0 | 3.0 | 0.00 | 0.35 | 0.01 | 88 | 1008.2 |
| 20260506051133 | 52 | 263 | 4.0 | 11.0 | 0.00 | 0.35 | 0.01 | 89 | 1008.2 |
| 20260506050631 | 52 | 220 | 7.0 | 11.0 | 0.00 | 0.35 | 0.01 | 89 | 1008.1 |
| 20260506050129 | 52 | 258 | 4.0 | 9.0 | 0.00 | 0.35 | 0.01 | 90 | 1008.1 |
| 20260506045126 | 52 | 233 | 4.0 | 10.0 | 0.00 | 0.35 | 0.01 | 91 | 1008.1 |
| 20260506044626 | 52 | 236 | 4.0 | 9.0 | 0.01 | 0.35 | 0.01 | 91 | 1008.0 |
| 20260506044125 | 52 | 247 | 5.0 | 11.0 | 0.01 | 0.35 | 0.01 | 91 | 1008.0 |
| 20260506043852 | 52 | 223 | 7.0 | 11.0 | 0.01 | 0.35 | 0.01 | 91 | 1007.9 |
| 20260506043124 | 51 | 244 | 4.0 | 7.0 | 0.01 | 0.35 | 0.01 | 92 | 1007.8 |
| 20260506042621 | 51 | 243 | 5.0 | 10.0 | 0.01 | 0.35 | 0.01 | 92 | 1007.8 |
| 20260506042117 | 51 | 226 | 4.0 | 10.0 | 0.01 | 0.35 | 0.01 | 92 | 1007.7 |
| 20260506041617 | 51 | 234 | 4.0 | 12.0 | 0.01 | 0.35 | 0.01 | 92 | 1007.8 |
| 20260506041338 | 51 | 239 | 5.0 | 12.0 | 0.01 | 0.35 | 0.01 | 92 | 1007.6 |
| 20260506040611 | 51 | 216 | 4.0 | 10.0 | 0.01 | 0.35 | 0.01 | 92 | 1007.4 |
| 20260506040113 | 52 | 251 | 6.0 | 8.0 | 0.01 | 0.35 | 0.01 | 92 | 1007.6 |
| 20260506035612 | 51 | 228 | 3.0 | 8.0 | 0.01 | 0.35 | 0.01 | 92 | 1007.5 |
| 20260506035109 | 51 | 211 | 2.0 | 8.0 | 0.01 | 0.35 | 0.01 | 92 | 1007.6 |
| 20260506034603 | 52 | 202 | 2.0 | 5.0 | 0.00 | 0.34 | 0.00 | 92 | 1007.6 |
| 20260506034058 | 51 | 216 | 2.0 | 5.0 | 0.00 | 0.34 | 0.00 | 92 | 1007.5 |
| 20260506033558 | 51 | 174 | 2.0 | 5.0 | 0.00 | 0.34 | 0.00 | 92 | 1007.5 |
| 20260506033055 | 51 | 206 | 1.0 | 5.0 | 0.00 | 0.34 | 0.00 | 92 | 1007.6 |
| 20260506032551 | 51 | 239 | 2.0 | 5.0 | 0.00 | 0.34 | 0.00 | 92 | 1007.8 |
| 20260506031551 | 51 | 226 | 1.0 | 7.0 | 0.00 | 0.34 | 0.00 | 91 | 1007.8 |
| 20260506031048 | 51 | 245 | 3.0 | 7.0 | 0.00 | 0.34 | 0.00 | 91 | 1007.8 |
| 20260506030548 | 51 | 220 | 2.0 | 7.0 | 0.00 | 0.34 | 0.00 | 91 | 1007.7 |
| 20260506030055 | 51 | 200 | 2.0 | 8.0 | 0.00 | 0.34 | 0.00 | 91 | 1007.6 |
| 20260506025541 | 51 | 197 | 3.0 | 8.0 | 0.00 | 0.34 | 0.00 | 91 | 1007.7 |
| 20260506025046 | 51 | 188 | 3.0 | 8.0 | 0.00 | 0.34 | 0.00 | 91 | 1007.7 |
| 20260506024542 | 51 | 233 | 3.0 | 6.0 | 0.00 | 0.34 | 0.00 | 91 | 1007.7 |
| 20260506024039 | 51 | 216 | 3.0 | 6.0 | 0.00 | 0.34 | 0.00 | 91 | 1007.7 |
| 20260506023812 | 51 | 224 | 2.0 | 7.0 | 0.00 | 0.34 | 0.00 | 91 | 1007.7 |
| 20260506023037 | 51 | 203 | 2.0 | 7.0 | 0.00 | 0.34 | 0.00 | 91 | 1007.7 |
| 20260506022036 | 51 | 182 | 2.0 | 4.0 | 0.00 | 0.34 | 0.00 | 91 | 1007.7 |
| 20260506021532 | 51 | 211 | 2.0 | 8.0 | 0.00 | 0.34 | 0.00 | 91 | 1007.7 |
| 20260506021036 | 51 | 247 | 3.0 | 8.0 | 0.00 | 0.34 | 0.00 | 91 | 1007.8 |
| 20260506020529 | 51 | 211 | 1.0 | 9.0 | 0.00 | 0.34 | 0.00 | 91 | 1007.9 |
| 20260506020024 | 51 | 216 | 3.0 | 9.0 | 0.00 | 0.34 | 0.00 | 92 | 1007.8 |
| 20260506015527 | 51 | 202 | 4.0 | 8.0 | 0.00 | 0.34 | 0.00 | 92 | 1007.8 |
| 20260506015024 | 51 | 180 | 3.0 | 8.0 | 0.00 | 0.34 | 0.00 | 92 | 1007.8 |
| 20260506014751 | 51 | 211 | 2.0 | 7.0 | 0.00 | 0.34 | 0.00 | 92 | 1007.8 |
| 20260506014249 | 51 | 206 | 3.0 | 7.0 | 0.00 | 0.34 | 0.00 | 92 | 1007.8 |
| 20260506013018 | 51 | 211 | 2.0 | 8.0 | 0.00 | 0.34 | 0.00 | 92 | 1007.8 |
| 20260506012518 | 51 | 216 | 2.0 | 8.0 | 0.00 | 0.34 | 0.00 | 92 | 1007.8 |
| 20260506012015 | 52 | 200 | 2.0 | 8.0 | 0.00 | 0.34 | 0.00 | 92 | 1007.8 |
| 20260506011738 | 52 | 216 | 2.0 | 8.0 | 0.00 | 0.34 | 0.00 | 92 | 1007.9 |
| 20260506011014 | 52 | 216 | 4.0 | 8.0 | 0.00 | 0.34 | 0.00 | 91 | 1007.9 |
| 20260506010750 | 52 | 211 | 2.0 | 5.0 | 0.00 | 0.34 | 0.00 | 91 | 1008.0 |
| 20260506010013 | 52 | 211 | 0.0 | 4.0 | 0.00 | 0.34 | 0.00 | 91 | 1008.0 |
| 20260506005509 | 52 | 189 | 2.0 | 7.0 | 0.00 | 0.34 | 0.00 | 91 | 1008.0 |
| 20260506005011 | 52 | 216 | 2.0 | 7.0 | 0.00 | 0.34 | 0.00 | 91 | 1008.1 |
| 20260506004729 | 51 | 241 | 2.0 | 4.0 | 0.00 | 0.34 | 0.00 | 91 | 1008.1 |
| 20260506004006 | 51 | 243 | 2.0 | 4.0 | 0.00 | 0.34 | 0.00 | 91 | 1008.0 |
| 20260506003505 | 51 | 216 | 2.0 | 4.0 | 0.00 | 0.34 | 0.00 | 91 | 1008.0 |
| 20260506003006 | 51 | 225 | 2.0 | 8.0 | 0.00 | 0.34 | 0.00 | 91 | 1008.1 |
| 20260506002501 | 52 | 237 | 4.0 | 8.0 | 0.00 | 0.34 | 0.00 | 92 | 1008.2 |
| 20260506001959 | 52 | 216 | 4.0 | 10.0 | 0.00 | 0.34 | 0.00 | 92 | 1008.3 |
| 20260506001459 | 52 | 237 | 5.0 | 10.0 | 0.00 | 0.34 | 0.00 | 92 | 1008.3 |
| 20260506001227 | 52 | 216 | 4.0 | 9.0 | 0.00 | 0.34 | 0.00 | 92 | 1008.3 |
| 20260506000456 | 52 | 216 | 2.0 | 4.0 | 0.00 | 0.34 | 0.00 | 92 | 1008.3 |
| 20260505235956 | 52 | 225 | 1.0 | 3.0 | 0.00 | 0.34 | 0.00 | 92 | 1008.3 |
| 20260505235457 | 52 | 229 | 1.0 | 5.0 | 0.00 | 0.34 | 0.00 | 92 | 1008.3 |
| 20260505234951 | 52 | 222 | 1.0 | 6.0 | 0.00 | 0.34 | 0.00 | 92 | 1008.4 |
| 20260505234453 | 52 | 237 | 4.0 | 6.0 | 0.00 | 0.34 | 0.00 | 92 | 1008.4 |
| 20260505233948 | 52 | 251 | 2.0 | 5.0 | 0.00 | 0.34 | 0.00 | 92 | 1008.5 |
| 20260505233452 | 52 | 233 | 3.0 | 4.0 | 0.00 | 0.34 | 0.00 | 92 | 1008.5 |
| 20260505233220 | 52 | 239 | 2.0 | 5.0 | 0.00 | 0.34 | 0.00 | 93 | 1008.5 |
| 20260505232446 | 51 | 247 | 2.0 | 5.0 | 0.00 | 0.34 | 0.00 | 93 | 1008.5 |
| 20260505231945 | 51 | 220 | 1.0 | 5.0 | 0.00 | 0.34 | 0.00 | 93 | 1008.4 |
| 20260505231444 | 51 | 233 | 2.0 | 5.0 | 0.00 | 0.34 | 0.00 | 93 | 1008.4 |
| 20260505230940 | 51 | 240 | 1.0 | 4.0 | 0.00 | 0.34 | 0.00 | 93 | 1008.3 |
| 20260505230444 | 51 | 266 | 2.0 | 4.0 | 0.00 | 0.34 | 0.00 | 93 | 1008.4 |
| 20260505225942 | 51 | 259 | 1.0 | 3.0 | 0.00 | 0.34 | 0.00 | 93 | 1008.4 |
| 20260505225439 | 51 | 216 | 0.0 | 4.0 | 0.00 | 0.34 | 0.00 | 93 | 1008.3 |
| 20260505224939 | 51 | 216 | 1.0 | 4.0 | 0.00 | 0.34 | 0.00 | 93 | 1008.4 |
| 20260505224438 | 51 | 216 | 0.0 | 3.0 | 0.00 | 0.34 | 0.00 | 93 | 1008.3 |
| 20260505223937 | 51 | 216 | 0.0 | 2.0 | 0.00 | 0.34 | 0.00 | 93 | 1008.3 |
| 20260505223701 | 51 | 216 | 0.0 | 1.0 | 0.00 | 0.34 | 0.00 | 93 | 1008.3 |
| 20260505222933 | 51 | 216 | 0.0 | 1.0 | 0.00 | 0.34 | 0.00 | 93 | 1008.4 |
| 20260505222432 | 51 | 216 | 0.0 | 1.0 | 0.00 | 0.34 | 0.00 | 93 | 1008.4 |
| 20260505220421 | 51 | 216 | 0.0 | 1.0 | 0.00 | 0.34 | 0.00 | 93 | 1008.4 |
| 20260505215919 | 51 | 216 | 0.0 | 1.0 | 0.00 | 0.34 | 0.34 | 93 | 1008.5 |
| 20260505215700 | 51 | 216 | 0.0 | 2.0 | 0.00 | 0.34 | 0.34 | 93 | 1008.5 |
| 20260505215156 | 51 | 216 | 0.0 | 2.0 | 0.00 | 0.34 | 0.34 | 93 | 1008.4 |
| 20260505214411 | 51 | 216 | 0.0 | 2.0 | 0.00 | 0.34 | 0.34 | 93 | 1008.5 |
| 20260505213912 | 51 | 216 | 0.0 | 3.0 | 0.00 | 0.34 | 0.34 | 93 | 1008.5 |
| 20260505212912 | 51 | 216 | 1.0 | 3.0 | 0.00 | 0.34 | 0.34 | 93 | 1008.6 |
| 20260505212406 | 51 | 230 | 2.0 | 3.0 | 0.00 | 0.34 | 0.34 | 93 | 1008.7 |
| 20260505211906 | 51 | 320 | 0.0 | 2.0 | 0.00 | 0.34 | 0.34 | 93 | 1008.5 |
| 20260505211404 | 51 | 320 | 0.0 | 2.0 | 0.00 | 0.34 | 0.34 | 93 | 1008.7 |
| 20260505211131 | 51 | 320 | 0.0 | 0.0 | 0.00 | 0.34 | 0.34 | 93 | 1008.8 |
| 20260505210355 | 51 | 320 | 0.0 | 1.0 | 0.00 | 0.34 | 0.34 | 93 | 1008.7 |
| 20260505205857 | 51 | 320 | 0.0 | 1.0 | 0.00 | 0.34 | 0.34 | 92 | 1008.6 |
| 20260505203851 | 51 | 320 | 0.0 | 1.0 | 0.00 | 0.34 | 0.34 | 92 | 1008.6 |
| 20260505203350 | 51 | 320 | 0.0 | 1.0 | 0.00 | 0.34 | 0.34 | 92 | 1008.6 |
| 20260505202847 | 51 | 320 | 0.0 | 1.0 | 0.00 | 0.34 | 0.34 | 92 | 1008.5 |
| 20260505202342 | 52 | 320 | 0.0 | 1.0 | 0.00 | 0.34 | 0.34 | 91 | 1008.6 |
| 20260505201846 | 52 | 320 | 0.0 | 1.0 | 0.00 | 0.34 | 0.34 | 92 | 1008.5 |
| 20260505201339 | 52 | 320 | 0.0 | 0.0 | 0.00 | 0.34 | 0.34 | 91 | 1008.5 |
| 20260505200835 | 52 | 320 | 0.0 | 0.0 | 0.00 | 0.34 | 0.34 | 91 | 1008.5 |
| 20260505200340 | 52 | 320 | 0.0 | 1.0 | 0.00 | 0.34 | 0.34 | 91 | 1008.4 |
| 20260505200109 | 52 | 320 | 0.0 | 1.0 | 0.00 | 0.34 | 0.34 | 91 | 1008.2 |
| 20260505194833 | 52 | 320 | 0.0 | 2.0 | 0.00 | 0.34 | 0.34 | 90 | 1008.1 |
| 20260505194332 | 52 | 320 | 0.0 | 2.0 | 0.00 | 0.34 | 0.34 | 90 | 1008.0 |
| 20260505193832 | 52 | 314 | 0.0 | 3.0 | 0.00 | 0.34 | 0.34 | 90 | 1008.0 |
| 20260505193328 | 53 | 274 | 1.0 | 4.0 | 0.00 | 0.34 | 0.34 | 90 | 1007.9 |
| 20260505192828 | 53 | 307 | 2.0 | 9.0 | 0.01 | 0.34 | 0.34 | 90 | 1007.9 |
| 20260505192329 | 53 | 329 | 1.0 | 9.0 | 0.01 | 0.34 | 0.34 | 90 | 1007.8 |
| 20260505191326 | 53 | 322 | 3.0 | 10.0 | 0.02 | 0.34 | 0.34 | 90 | 1007.8 |
| 20260505190822 | 53 | 327 | 4.0 | 10.0 | 0.03 | 0.34 | 0.34 | 90 | 1007.9 |
| 20260505190320 | 53 | 330 | 5.0 | 10.0 | 0.05 | 0.34 | 0.34 | 90 | 1007.9 |
| 20260505185817 | 53 | 293 | 6.0 | 10.0 | 0.08 | 0.34 | 0.34 | 89 | 1007.8 |
| 20260505185319 | 53 | 311 | 4.0 | 9.0 | 0.10 | 0.34 | 0.34 | 89 | 1007.9 |
| 20260505184816 | 53 | 321 | 5.0 | 9.0 | 0.17 | 0.34 | 0.34 | 89 | 1008.0 |
| 20260505184315 | 53 | 318 | 3.0 | 8.0 | 0.24 | 0.34 | 0.34 | 89 | 1008.2 |
| 20260505184046 | 53 | 329 | 1.0 | 4.0 | 0.31 | 0.34 | 0.34 | 89 | 1008.3 |
| 20260505183313 | 53 | 334 | 0.0 | 3.0 | 0.34 | 0.34 | 0.34 | 89 | 1008.5 |
| 20260505182810 | 53 | 334 | 1.0 | 3.0 | 0.33 | 0.33 | 0.33 | 89 | 1008.6 |
| 20260505182537 | 53 | 34 | 0.0 | 4.0 | 0.33 | 0.33 | 0.33 | 89 | 1008.6 |
| 20260505181809 | 53 | 34 | 1.0 | 10.0 | 0.33 | 0.33 | 0.33 | 88 | 1008.4 |
| 20260505181305 | 53 | 249 | 3.0 | 12.0 | 0.31 | 0.31 | 0.31 | 88 | 1008.4 |
| 20260505180806 | 54 | 276 | 6.0 | 13.0 | 0.31 | 0.31 | 0.31 | 87 | 1008.3 |
| 20260505180307 | 54 | 245 | 8.0 | 19.0 | 0.29 | 0.29 | 0.29 | 87 | 1008.4 |
| 20260505175802 | 54 | 286 | 9.0 | 19.0 | 0.26 | 0.26 | 0.27 | 86 | 1008.4 |
| 20260505175301 | 54 | 290 | 9.0 | 19.0 | 0.24 | 0.24 | 0.24 | 85 | 1008.1 |
| 20260505175020 | 55 | 293 | 12.0 | 19.0 | 0.17 | 0.17 | 0.17 | 83 | 1008.1 |
| 20260505174258 | 57 | 263 | 10.0 | 21.0 | 0.10 | 0.10 | 0.10 | 81 | 1008.2 |
| 20260505173756 | 59 | 262 | 10.0 | 21.0 | 0.02 | 0.02 | 0.02 | 77 | 1008.4 |
| 20260505173257 | 61 | 252 | 7.0 | 20.0 | 0.00 | 0.00 | 0.00 | 71 | 1008.3 |
| 20260505172536 | 63 | 291 | 0.0 | 4.0 | 0.00 | 0.00 | 0.00 | 67 | 1007.6 |
| 20260505171751 | 63 | 324 | 0.0 | 6.0 | 0.00 | 0.00 | 0.00 | 67 | 1007.1 |
| 20260505171251 | 63 | 324 | 1.0 | 7.0 | 0.00 | 0.00 | 0.00 | 67 | 1007.0 |
| 20260505170749 | 64 | 358 | 4.0 | 7.0 | 0.00 | 0.00 | 0.00 | 67 | 1007.0 |
| 20260505170249 | 64 | 12 | 1.0 | 5.0 | 0.00 | 0.00 | 0.00 | 67 | 1007.0 |
| 20260505165747 | 64 | 31 | 0.0 | 6.0 | 0.00 | 0.00 | 0.00 | 67 | 1007.0 |
| 20260505165515 | 64 | 32 | 2.0 | 6.0 | 0.00 | 0.00 | 0.00 | 66 | 1007.0 |
| 20260505164745 | 64 | 17 | 2.0 | 6.0 | 0.00 | 0.00 | 0.00 | 66 | 1007.0 |
| 20260505164241 | 64 | 44 | 2.0 | 8.0 | 0.00 | 0.00 | 0.00 | 67 | 1007.1 |
| 20260505163744 | 64 | 20 | 3.0 | 8.0 | 0.00 | 0.00 | 0.00 | 67 | 1007.1 |
| 20260505162242 | 65 | 29 | 5.0 | 11.0 | 0.00 | 0.00 | 0.00 | 66 | 1007.3 |
| 20260505161733 | 65 | 28 | 5.0 | 13.0 | 0.00 | 0.00 | 0.00 | 66 | 1007.3 |
| 20260505161235 | 65 | 24 | 6.0 | 14.0 | 0.00 | 0.00 | 0.00 | 66 | 1007.4 |
| 20260505161017 | 65 | 43 | 6.0 | 14.0 | 0.00 | 0.00 | 0.00 | 67 | 1007.4 |
| 20260505160516 | 66 | 39 | 6.0 | 12.0 | 0.00 | 0.00 | 0.00 | 66 | 1007.4 |
| 20260505153227 | 66 | 14 | 2.0 | 8.0 | 0.00 | 0.00 | 0.00 | 67 | 1007.6 |
| 20260505152725 | 66 | 19 | 3.0 | 8.0 | 0.00 | 0.00 | 0.00 | 67 | 1007.6 |
| 20260505152223 | 66 | 353 | 3.0 | 10.0 | 0.00 | 0.00 | 0.00 | 68 | 1007.7 |
| 20260505152014 | 65 | 45 | 3.0 | 10.0 | 0.00 | 0.00 | 0.00 | 68 | 1007.7 |
| 20260505151217 | 65 | 326 | 3.0 | 10.0 | 0.00 | 0.00 | 0.00 | 68 | 1007.8 |
| 20260505150718 | 65 | 30 | 3.0 | 14.0 | 0.00 | 0.00 | 0.00 | 67 | 1007.8 |
| 20260505150459 | 66 | 28 | 4.0 | 14.0 | 0.00 | 0.00 | 0.00 | 66 | 1007.8 |
| 20260505140200 | 67 | 336 | 2.0 | 12.0 | 0.00 | 0.00 | 0.00 | 62 | 1008.0 |
| 20260505130153 | 68 | 317 | 3.0 | 12.0 | 0.00 | 0.00 | 0.00 | 58 | 1008.4 |
| 20260505124640 | 69 | 7 | 4.0 | 9.0 | 0.00 | 0.00 | 0.00 | 58 | 1008.4 |
| 20260505124134 | 71 | 334 | 2.0 | 11.0 | 0.00 | 0.00 | 0.00 | 58 | 1008.4 |
| 20260505123633 | 70 | 325 | 3.0 | 12.0 | 0.00 | 0.00 | 0.00 | 58 | 1008.5 |
| 20260505123132 | 68 | 319 | 4.0 | 12.0 | 0.00 | 0.00 | 0.00 | 58 | 1008.5 |
| 20260505122632 | 68 | 322 | 5.0 | 11.0 | 0.00 | 0.00 | 0.00 | 58 | 1008.5 |
| 20260505122130 | 68 | 321 | 2.0 | 14.0 | 0.00 | 0.00 | 0.00 | 59 | 1008.5 |
| 20260505121628 | 68 | 337 | 4.0 | 14.0 | 0.00 | 0.00 | 0.00 | 59 | 1008.5 |
| 20260505120626 | 69 | 315 | 4.0 | 9.0 | 0.00 | 0.00 | 0.00 | 59 | 1008.6 |
| 20260505120119 | 69 | 330 | 2.0 | 13.0 | 0.00 | 0.00 | 0.00 | 59 | 1008.6 |
| 20260505115619 | 70 | 328 | 3.0 | 13.0 | 0.00 | 0.00 | 0.00 | 58 | 1008.7 |
| 20260505115116 | 71 | 317 | 6.0 | 14.0 | 0.00 | 0.00 | 0.00 | 57 | 1008.6 |
| 20260505114850 | 72 | 323 | 7.0 | 14.0 | 0.00 | 0.00 | 0.00 | 57 | 1008.7 |
| 20260505114113 | 71 | 294 | 7.0 | 13.0 | 0.00 | 0.00 | 0.00 | 56 | 1008.8 |
| 20260505113612 | 71 | 322 | 3.0 | 8.0 | 0.00 | 0.00 | 0.00 | 55 | 1008.8 |
| 20260505113111 | 71 | 59 | 4.0 | 7.0 | 0.00 | 0.00 | 0.00 | 52 | 1008.9 |
| 20260505112609 | 70 | 55 | 1.0 | 8.0 | 0.00 | 0.00 | 0.00 | 52 | 1008.8 |
| 20260505112117 | 69 | 54 | 4.0 | 8.0 | 0.00 | 0.00 | 0.00 | 54 | 1008.9 |
| 20260505111836 | 69 | 1 | 1.0 | 5.0 | 0.00 | 0.00 | 0.00 | 56 | 1008.9 |
| 20260505111102 | 68 | 39 | 1.0 | 7.0 | 0.00 | 0.00 | 0.00 | 58 | 1008.9 |
| 20260505110602 | 68 | 29 | 3.0 | 10.0 | 0.00 | 0.00 | 0.00 | 58 | 1009.0 |
| 20260505102050 | 71 | 120 | 3.0 | 9.0 | 0.00 | 0.00 | 0.00 | 55 | 1009.3 |
| 20260505101544 | 71 | 83 | 3.0 | 7.0 | 0.00 | 0.00 | 0.00 | 55 | 1009.4 |
| 20260505101047 | 71 | 62 | 3.0 | 8.0 | 0.00 | 0.00 | 0.00 | 56 | 1009.5 |
| 20260505100543 | 69 | 63 | 4.0 | 8.0 | 0.00 | 0.00 | 0.00 | 56 | 1009.5 |
| 20260505100053 | 69 | 83 | 6.0 | 11.0 | 0.00 | 0.00 | 0.00 | 59 | 1009.6 |
| 20260505095812 | 69 | 110 | 5.0 | 11.0 | 0.00 | 0.00 | 0.00 | 57 | 1009.7 |
| 20260505095044 | 69 | 92 | 7.0 | 11.0 | 0.00 | 0.00 | 0.00 | 58 | 1009.7 |
| 20260505094759 | 69 | 60 | 1.0 | 8.0 | 0.00 | 0.00 | 0.00 | 58 | 1009.8 |
| 20260505093538 | 67 | 70 | 3.0 | 9.0 | 0.00 | 0.00 | 0.00 | 58 | 1009.9 |
| 20260505093036 | 68 | 75 | 5.0 | 9.0 | 0.00 | 0.00 | 0.00 | 61 | 1010.0 |
| 20260505092535 | 68 | 60 | 2.0 | 9.0 | 0.00 | 0.00 | 0.00 | 60 | 1009.9 |
| 20260505092033 | 69 | 23 | 4.0 | 9.0 | 0.00 | 0.00 | 0.00 | 61 | 1010.1 |
| 20260505091532 | 68 | 114 | 3.0 | 8.0 | 0.00 | 0.00 | 0.00 | 60 | 1010.0 |
| 20260505091027 | 68 | 76 | 3.0 | 8.0 | 0.00 | 0.00 | 0.00 | 61 | 1010.1 |
| 20260505090802 | 68 | 72 | 1.0 | 10.0 | 0.00 | 0.00 | 0.00 | 64 | 1010.1 |
| 20260505090028 | 69 | 64 | 3.0 | 10.0 | 0.00 | 0.00 | 0.00 | 61 | 1010.1 |
| 20260505085528 | 68 | 92 | 3.0 | 8.0 | 0.00 | 0.00 | 0.00 | 63 | 1010.2 |
| 20260505084525 | 68 | 85 | 2.0 | 4.0 | 0.00 | 0.00 | 0.00 | 66 | 1010.2 |
| 20260505084021 | 66 | 74 | 2.0 | 4.0 | 0.00 | 0.00 | 0.00 | 69 | 1010.2 |
| 20260505083521 | 65 | 143 | 1.0 | 4.0 | 0.00 | 0.00 | 0.00 | 69 | 1010.2 |
| 20260505083022 | 65 | 117 | 0.0 | 5.0 | 0.00 | 0.00 | 0.00 | 69 | 1010.2 |
| 20260505082518 | 65 | 91 | 3.0 | 5.0 | 0.00 | 0.00 | 0.00 | 69 | 1010.3 |
| 20260505082017 | 65 | 95 | 3.0 | 8.0 | 0.00 | 0.00 | 0.00 | 70 | 1010.3 |
| 20260505081516 | 65 | 97 | 3.0 | 8.0 | 0.00 | 0.00 | 0.00 | 70 | 1010.3 |
| 20260505081015 | 65 | 83 | 2.0 | 4.0 | 0.00 | 0.00 | 0.00 | 71 | 1010.3 |
| 20260505080513 | 65 | 132 | 1.0 | 4.0 | 0.00 | 0.00 | 0.00 | 72 | 1010.3 |
| 20260505080013 | 64 | 50 | 2.0 | 4.0 | 0.00 | 0.00 | 0.00 | 73 | 1010.4 |